Columbia County, Pennsylvania, United States
Lat: 41.04N, Lon: 76.43W
Wx Zone: PAZ053
Local Info
Past Weather Observations for Tuesday, April 14, 2015

NOTE: This archive is for the closest National Weather Service station to Columbia County. Information may differ from the station used for current weather conditions.

Click here for Long-term Archive

Time Weather Temperature Dewpoint Humidity Pressure Winds Precip Visibility
23:53
Clear
46°F / 8°C 39°F / 4°C 76% 30.18 in
(1022 mb)
N 4.6 mph
(N 7 kph)
- 10SM
22:53
Clear
46°F / 8°C 43°F / 6°C 87% 30.18 in
(1022 mb)
Calm - 10SM
21:53
Clear
50°F / 10°C 43°F / 6°C 76% 30.15 in
(1021 mb)
Calm - 10SM
20:53
Clear
50°F / 10°C 45°F / 7°C 82% 30.15 in
(1021 mb)
NW 3.5 mph
(NW 6 kph)
- 10SM
19:53
Clear
54°F / 12°C 41°F / 5°C 63% 30.15 in
(1021 mb)
Calm - 10SM
18:53
Clear
57°F / 14°C 39°F / 4°C 51% 30.12 in
(1020 mb)
Calm - 10SM
17:53
Clear
61°F / 16°C 37°F / 3°C 42% 30.12 in
(1020 mb)
Calm - 10SM
16:53
Clear
61°F / 16°C 39°F / 4°C 45% 30.12 in
(1020 mb)
SSE 4.6 mph
(SSE 7 kph)
- 10SM
15:53
Clear
63°F / 17°C 34°F / 1°C 34% 30.12 in
(1020 mb)
Calm - 10SM
14:53
Clear
63°F / 17°C 36°F / 2°C 37% 30.15 in
(1021 mb)
N 4.6 mph
(N 7 kph)
- 10SM
13:53
Clear
63°F / 17°C 36°F / 2°C 37% 30.15 in
(1021 mb)
N 5.8 mph
(N 9 kph)
- 10SM
12:53
Clear
63°F / 17°C 34°F / 1°C 34% 30.18 in
(1022 mb)
N 8.1 mph
(N 13 kph)
- 10SM
11:53
Partly Cloudy
61°F / 16°C 37°F / 3°C 42% 30.21 in
(1023 mb)
Calm - 10SM
10:53
Mostly Cloudy
61°F / 16°C 39°F / 4°C 45% 30.21 in
(1023 mb)
NNE 5.8 mph
(NNE 9 kph)
- 10SM
09:53
Mostly Cloudy
57°F / 14°C 39°F / 4°C 51% 30.24 in
(1024 mb)
NE 5.8 mph
(NE 9 kph)
- 10SM
08:53
Overcast
55°F / 13°C 43°F / 6°C 63% 30.24 in
(1024 mb)
NE 5.8 mph
(NE 9 kph)
- 10SM
07:53
Overcast
54°F / 12°C 43°F / 6°C 67% 30.24 in
(1024 mb)
NE 5.8 mph
(NE 9 kph)
- 10SM
06:53
Overcast
52°F / 11°C 41°F / 5°C 67% 30.21 in
(1023 mb)
NE 8.1 mph
(NE 13 kph)
- 10SM
05:53
Overcast
52°F / 11°C 43°F / 6°C 72% 30.18 in
(1022 mb)
N 8.1 mph
(N 13 kph)
0.00 in
(0.00 mm)
10SM
05:22
Overcast
Light Rain
52°F / 11°C 43°F / 6°C 72% 30.15 in
(1021 mb)
NE 9.2 mph
(NE 15 kph)
0.00 in
(0.00 mm)
10SM
04:53
Overcast
54°F / 12°C 43°F / 6°C 67% 30.15 in
(1021 mb)
NNE 13.8 mph
(NNE 22 kph)
- 10SM
03:53
Overcast
57°F / 14°C 54°F / 12°C 88% 30.12 in
(1020 mb)
NNE 6.9 mph
(NNE 11 kph)
0.06 in
(1.52 mm)
10SM
03:22
Overcast
Rain
55°F / 13°C 54°F / 12°C 94% 30.09 in
(1019 mb)
N 10.4 mph
(N 17 kph)
0.06 in
(1.52 mm)
5SM
02:53
Overcast
Light Rain
55°F / 13°C 52°F / 11°C 88% 30.09 in
(1019 mb)
NNW 4.6 mph
(NNW 7 kph)
0.00 in
(0.00 mm)
7SM
01:53
Mostly Cloudy
63°F / 17°C 46°F / 8°C 56% 30.06 in
(1018 mb)
SSW 3.5 mph
(SSW 6 kph)
- 10SM
00:53
Mostly Cloudy
63°F / 17°C 46°F / 8°C 56% 30.06 in
(1018 mb)
SW 4.6 mph
(SW 7 kph)
- 10SM
Time Weather Temperature Dewpoint Humidity Pressure Winds Precip Visibility


Weather for websites

WeatherForYou.com, LLC is not responsible for any damages or problems caused by this service. Current weather conditions are obtained from the closest station including government and personal stations which may have varying degrees of accuracy. Weather forecasts are derived from the NOAA NDFD. Like all things, this site belongs to Jesus Christ... He just trusts me to maintain it. If you have any questions or comments email webmaster@weatherforyou.com

Copyright © 2015, WeatherForYou.com LLC. All rights reserved.